Regional Weather Roundup
Issued by NWS Raleigh/Durham, NC

Home | Current Version | Previous Version | Text Only | Print | Product List | Glossary On
Versions: 1 2 3 4 5 6 7 8 9 10 11 12 13 14 15 16 17 18 19 20 21 22 23 24 25 26 27 28 29 30 31 32 33 34 35 36 37 38 39 40 41 42 43 44 45 46 47 48 49 50
000
ASUS42 KRAH 051510
RWRRAH
NORTH CAROLINA WEATHER ROUNDUP
NATIONAL WEATHER SERVICE RALEIGH NC
1100 AM EDT TUE MAY 05 2015

NOTE: "FAIR" INDICATES FEW OR NO CLOUDS BELOW 12,000 FEET WITH NO
SIGNIFICANT WEATHER AND/OR OBSTRUCTIONS TO VISIBILITY.

NCZ001-053-055-056-065-067-051600-
WESTERN NORTH CAROLINA

CITY           SKY/WX    TMP DP  RH WIND       PRES   REMARKS
ASHEVILLE      SUNNY     72  52  49 NW14      30.38S
JEFFERSON      SUNNY     70  42  36 NW5       30.40S
MORGANTON      MOSUNNY   72  56  57 S5        30.39S
HICKORY        PTSUNNY   72  57  59 VRB3      30.34S
RUTHERFORDTON  SUNNY     71  58  62 S8        30.35F
MOUNT AIRY     SUNNY     72  59  62 S3        30.35F
BOONE          SUNNY     69  46  42 W9        30.41S
$$

NCZ021-022-025-041-071-084-088-051600-
CENTRAL NORTH CAROLINA

CITY           SKY/WX    TMP DP  RH WIND       PRES   REMARKS
CHARLOTTE      MOSUNNY   74  55  51 VRB3      30.36S
GREENSBORO     MOSUNNY   72  57  59 SW8G17    30.33F
WINSTON-SALEM  SUNNY     72  56  57 VRB6      30.35F
RALEIGH-DURHAM MOSUNNY   74  57  55 SW10      30.36S
FORT BRAGG     NOT AVBL
FAYETTEVILLE   SUNNY     75  51  43 VRB3      30.36F
BURLINGTON     SUNNY     74  56  53 SW13      30.34S
LAURINBURG     SUNNY     74  50  42 CALM      30.37S
$$

NCZ011-015-027-028-043-044-047-080-103-051600-
NORTHEASTERN NORTH CAROLINA

CITY           SKY/WX    TMP DP  RH WIND       PRES   REMARKS
ROCKY MT-WILSO SUNNY     75  53  46 S12       30.37S
GREENVILLE     SUNNY     75  52  43 SW6       30.37S
WASHINGTON     SUNNY     74  50  42 SW9       30.38R
ELIZABETH CITY PTSUNNY   75  53  46 SW12      30.37R
MANTEO         SUNNY     74  51  44 SW8       30.37S
CAPE HATTERAS  SUNNY     70  52  52 SW6       30.39R
$$

NCZ078-087-090-091-093-098-101-051600-
SOUTHEASTERN NORTH CAROLINA

CITY           SKY/WX    TMP DP  RH WIND       PRES   REMARKS
LUMBERTON      SUNNY     76  53  44 VRB3      30.36F
GOLDSBORO      NOT AVBL
KINSTON        SUNNY     75  48  38 SW6       30.38S
KENANSVILLE    SUNNY     74  47  38 S5        30.38F
NEW BERN       SUNNY     76  48  37 CALM      30.39R
CHERRY POINT   SUNNY     76  46  34 VRB6      30.38S
BEAUFORT       SUNNY     74  48  39 VRB5      30.38R
JACKSONVILLE   SUNNY     76  49  38 VRB7      30.37S
WILMINGTON     SUNNY     75  51  43 SE9       30.37R
$$




USA.gov is the U.S. government's official web portal to all federal, state and local government web resources and services.